Tracking 29892 objects as of 21-Nov-2024
HD Live streaming from Space Station
objects crossing your sky now

SPIP

Track SPIP now!
10-day predictions


NORAD ID: 58298
Int'l Code: 2023-174AU
Perigee: 505.4 km
Apogee: 521.5 km
Inclination: 97.4 °
Period: 94.7 minutes
Semi major axis: 6884 km
RCS: Unknown
Launch date: November 11, 2023
Source: (BEL)
Launch site: AIR FORCE WESTERN TEST RANGE (AFWTR)
Your satellite tracking list
Your tracking list is empty




NASA's NSSDC Master Catalog

Two Line Element Set (TLE):
1 58298U 23174AU  24326.19633705  .00007484  00000-0  35155-3 0  9995
2 58298  97.4443  38.1142 0011756  48.9463 311.2785 15.19843416 57504
Source of the keplerian elements: AFSPC